Q-SAT (46026 NORAD) Tracking and Keplerian Element Data

This shows tracking and keplerian element data for the satellite.

Feedback or suggestion? Click here.




ElementValue
Catalog46026
NameQ-SAT
Epoch Orbit1820
Epoch Day338.6611947
Epoch Year2020
RAAN49.6296
Inclination97.4608
Eccentricity0.0016249
Argument of Perigee204.0845
Mean Anonmoly261.8584
Mean Motion15.24209321
Decay Rate2.785E-05
L11 46026U 20054B 20338.66119470 .00002785 00000-0 11689-3 0 9999
L22 46026 97.4608 49.6296 0016249 204.0845 261.8584 15.24209321 18209

Live tracking and technical data element details for Q-SAT (NORAD 46026). Q-SAT can be tracked NOW for your location showing map with azimuth and elevation plus other details from your city location.

Track the satellite on the map from your city or location and see movement details for azimuth, elevation, latitude, longitude, range, height, and movement on the map or in text.







IsCatalogInMostPopularTable: catalog: 46026, numindb: 24
Update: records affected: 1



GetName: 46026 Q-SAT

Hit Count: updated at: Sat, 05 Dec 2020 05:47:45 GMT